User: anonymous   Login
Location: Unspecified
(0.0000°N, 0.0000°E)
Time: 09:05:59
(UTC+00:00)
Language:

Resurs 1-4 - Orbit

View from above orbital plane
View from above orbital plane
View from above satellite
View from above satellite

Ground track
Ground track

The orbit data is extracted from the following two-line orbital elements,

1 25394U 98043A   24104.88934732  .00000087  00000-0  56962-4 0  9999
2 25394  98.8340  57.6542 0000248 281.0341  79.0810 14.24599505339216
Epoch (UTC): 13 April 2024 21:20:39
Eccentricity: 0.0000248
inclination: 98.8340°
perigee height: 809 km
apogee height: 810 km
right ascension of ascending node: 57.6542°
argument of perigee: 281.0341°
revolutions per day: 14.24599505
mean anomaly at epoch: 79.0810°
orbit number at epoch: 33921

The dashed part of the orbit path shows where the satellite is in the earth's shadow,  

DLR